2020-063G (46395 NORAD) Tracking and Keplerian Element Data

This shows tracking and keplerian element data for the satellite.

Feedback or suggestion? Click here.




ElementValue
Catalog46395
Name2020-063G
Epoch Orbit306
Epoch Day267.7018083
Epoch Year2020
RAAN323.1609
Inclination50.2082
Eccentricity0.0012041
Argument of Perigee14.3679
Mean Anonmoly78.1502
Mean Motion15.76988307
Decay Rate8.941E-05
L11 46395U 20063G 20267.70180830 .00008941 00000-0 57546-4 0 9995
L22 46395 50.2082 323.1609 0012041 14.3679 78.1502 15.76988307 3064

Live tracking and technical data element details for 2020-063G (NORAD 46395). 2020-063G can be tracked NOW for your location showing map with azimuth and elevation plus other details from your city location.

Track the satellite on the map from your city or location and see movement details for azimuth, elevation, latitude, longitude, range, height, and movement on the map or in text.







IsCatalogInMostPopularTable: catalog: 46395, numindb: 2
Update: records affected: 1



GetName: 46395 2020-063G

Hit Count: updated at: Thu, 24 Sep 2020 17:42:48 GMT